BFT9FP OTHH-HDAM

Flight info

Callsign BFT9FP
Flight time 3h 38m
Altitude 31000
Route DATRI L564 BAT DCT KUTNA DCT MIGMA DCT GOBRO L425 ITUVO B400 RIGAM B404 DEMGO UB404 HARGA UR775 LUBAR LUBAR1R
Aircraft A321/M-SDE3FGHIRWY/LB1

Departure

Time 2026-05-07 08:55
Airport Hamad International Airport (OTHH)

Arrival

Time 2026-05-07 12:33
Airport Djibouti-Ambouli Airport (HDAM)
Time Latitude Longitude Altitude Speed Heading
2026-05-07 08:23 25.27054 51.61033 30 ft 0 kts 158°
2026-05-07 08:48 25.27060 51.61031 30 ft 4 kts 158°
2026-05-07 08:48 25.27085 51.61020 30 ft 4 kts 158°
2026-05-07 08:48 25.27110 51.61008 30 ft 4 kts 158°
2026-05-07 08:48 25.27134 51.60999 30 ft 4 kts 177°
2026-05-07 08:49 25.27158 51.61004 30 ft 4 kts 224°
2026-05-07 08:49 25.27169 51.61023 30 ft 4 kts 248°
2026-05-07 08:49 25.27174 51.61038 30 ft 0 kts 248°
2026-05-07 08:51 25.27173 51.61034 30 ft 2 kts 248°
2026-05-07 08:51 25.27160 51.60999 30 ft 8 kts 248°
2026-05-07 08:52 25.27135 51.60931 30 ft 11 kts 248°
2026-05-07 08:52 25.27102 51.60843 30 ft 14 kts 248°
2026-05-07 08:52 25.27066 51.60734 30 ft 16 kts 257°
2026-05-07 08:52 25.27103 51.60624 30 ft 16 kts 267°
2026-05-07 08:53 25.27066 51.60500 30 ft 18 kts 250°
2026-05-07 08:53 25.27015 51.60360 30 ft 21 kts 248°
2026-05-07 08:53 25.26960 51.60207 29 ft 21 kts 246°
2026-05-07 08:53 25.26904 51.60058 26 ft 21 kts 248°
2026-05-07 08:54 25.26927 51.59928 25 ft 18 kts 334°
2026-05-07 08:54 25.27041 51.59881 27 ft 21 kts 339°
2026-05-07 08:54 25.27389 51.59727 26 ft 88 kts 338°
2026-05-07 08:54 25.28141 51.59398 27 ft 141 kts 338°
2026-05-07 08:55 25.29173 51.58963 69 ft 172 kts 340°
2026-05-07 08:55 25.30227 51.58504 726 ft 159 kts 337°
2026-05-07 08:55 25.31253 51.58043 1269 ft 160 kts 337°
2026-05-07 08:55 25.32285 51.57581 1782 ft 159 kts 338°
2026-05-07 08:56 25.33346 51.57108 1940 ft 171 kts 339°
2026-05-07 08:56 25.34486 51.56599 2078 ft 183 kts 340°
2026-05-07 08:56 25.35703 51.56059 2210 ft 194 kts 340°
2026-05-07 08:56 25.36994 51.55487 2336 ft 205 kts 340°
2026-05-07 08:57 25.38342 51.54891 2456 ft 213 kts 341°
2026-05-07 08:57 25.39759 51.54265 2576 ft 224 kts 341°
2026-05-07 08:57 25.41240 51.53610 2695 ft 235 kts 341°
2026-05-07 08:57 25.42805 51.52917 2812 ft 250 kts 341°
2026-05-07 08:58 25.44484 51.52176 2944 ft 269 kts 341°
2026-05-07 08:58 25.46232 51.51356 3318 ft 277 kts 333°
2026-05-07 08:58 25.47670 51.49920 3781 ft 285 kts 304°
2026-05-07 08:58 25.48330 51.48137 4183 ft 289 kts 279°
2026-05-07 08:59 25.48353 51.45915 4674 ft 290 kts 267°
2026-05-07 08:59 25.48252 51.43690 5176 ft 291 kts 267°
2026-05-07 08:59 25.48145 51.41482 5673 ft 292 kts 267°
2026-05-07 08:59 25.48044 51.39369 6153 ft 293 kts 268°
2026-05-07 09:00 25.47942 51.37085 6630 ft 295 kts 268°
2026-05-07 09:00 25.47839 51.34826 6937 ft 297 kts 268°
2026-05-07 09:00 25.47736 51.32567 7008 ft 296 kts 268°
2026-05-07 09:00 25.47635 51.30281 7018 ft 297 kts 266°
2026-05-07 09:01 25.47173 51.28071 7018 ft 296 kts 242°
2026-05-07 09:01 25.45890 51.26318 7017 ft 295 kts 214°
2026-05-07 09:01 25.44052 51.25383 7015 ft 291 kts 188°
2026-05-07 09:01 25.42044 51.25276 7021 ft 290 kts 178°
2026-05-07 09:02 25.40027 51.25303 7016 ft 290 kts 176°
2026-05-07 09:02 25.38006 51.25339 7015 ft 291 kts 177°
2026-05-07 09:02 25.35983 51.25376 7014 ft 291 kts 177°
2026-05-07 09:02 25.33963 51.25409 7014 ft 290 kts 178°
2026-05-07 09:03 25.31946 51.25438 7016 ft 290 kts 178°
2026-05-07 09:03 25.29930 51.25464 7019 ft 290 kts 178°
2026-05-07 09:03 25.27910 51.25508 7018 ft 290 kts 173°
2026-05-07 09:03 25.25951 51.25949 7019 ft 287 kts 159°
2026-05-07 09:04 25.24082 51.26738 7019 ft 287 kts 157°
2026-05-07 09:04 25.22219 51.27530 7019 ft 287 kts 157°
2026-05-07 09:04 25.20355 51.28320 7018 ft 287 kts 157°
2026-05-07 09:04 25.18491 51.29105 7021 ft 287 kts 157°
2026-05-07 09:05 25.16628 51.29889 7022 ft 286 kts 157°
2026-05-07 09:05 25.14766 51.30671 7020 ft 286 kts 157°
2026-05-07 09:05 25.12904 51.31453 7018 ft 287 kts 158°
2026-05-07 09:05 25.11039 51.32240 7020 ft 287 kts 157°
2026-05-07 09:06 25.09174 51.33027 7020 ft 287 kts 157°
2026-05-07 09:06 25.07315 51.33810 7020 ft 286 kts 157°
2026-05-07 09:06 25.05451 51.34593 7020 ft 287 kts 157°
2026-05-07 09:06 25.03587 51.35375 7020 ft 287 kts 157°
2026-05-07 09:07 25.01723 51.36159 7023 ft 287 kts 157°
2026-05-07 09:07 24.99860 51.36944 7019 ft 287 kts 157°
2026-05-07 09:07 24.97995 51.37729 7019 ft 287 kts 157°
2026-05-07 09:07 24.96130 51.38514 7016 ft 287 kts 157°
2026-05-07 09:08 24.94268 51.39296 7013 ft 287 kts 157°
2026-05-07 09:08 24.92459 51.40202 7017 ft 285 kts 146°
2026-05-07 09:08 24.90832 51.41469 7402 ft 287 kts 142°
2026-05-07 09:08 24.89207 51.42753 7891 ft 289 kts 143°
2026-05-07 09:09 24.87593 51.44013 8373 ft 290 kts 143°
2026-05-07 09:09 24.85937 51.45303 8866 ft 292 kts 143°
2026-05-07 09:09 24.84270 51.46602 9332 ft 295 kts 143°
2026-05-07 09:09 24.82589 51.47910 9797 ft 297 kts 143°
2026-05-07 09:10 24.80892 51.49230 10167 ft 303 kts 143°
2026-05-07 09:10 24.79125 51.50606 10284 ft 318 kts 143°
2026-05-07 09:10 24.77277 51.52049 10400 ft 333 kts 143°
2026-05-07 09:10 24.75346 51.53541 10522 ft 347 kts 146°
2026-05-07 09:11 24.73162 51.54797 10637 ft 362 kts 157°
2026-05-07 09:11 24.70704 51.55597 10758 ft 376 kts 168°
2026-05-07 09:11 24.68061 51.55860 10877 ft 389 kts 180°
2026-05-07 09:11 24.65334 51.55520 11003 ft 401 kts 191°
2026-05-07 09:12 24.62586 51.54857 11288 ft 406 kts 191°
2026-05-07 09:12 24.59815 51.54194 11678 ft 408 kts 191°
2026-05-07 09:12 24.57036 51.53537 12081 ft 410 kts 191°
2026-05-07 09:12 24.54244 51.52883 12497 ft 411 kts 191°
2026-05-07 09:13 24.51441 51.52225 12906 ft 412 kts 191°
2026-05-07 09:13 24.48627 51.51562 13312 ft 414 kts 191°
2026-05-07 09:13 24.45812 51.50899 13703 ft 415 kts 191°
2026-05-07 09:13 24.42982 51.50232 14047 ft 417 kts 191°
2026-05-07 09:14 24.40179 51.49572 14396 ft 418 kts 190°
2026-05-07 09:14 24.37330 51.48901 14752 ft 419 kts 190°
2026-05-07 09:14 24.34477 51.48230 15099 ft 420 kts 191°
2026-05-07 09:14 24.31608 51.47556 15445 ft 422 kts 191°
2026-05-07 09:15 24.28730 51.46879 15781 ft 424 kts 191°
2026-05-07 09:15 24.25801 51.46190 16105 ft 426 kts 191°
2026-05-07 09:15 24.22897 51.45520 16434 ft 427 kts 189°
2026-05-07 09:15 24.19937 51.45205 16750 ft 428 kts 179°
2026-05-07 09:16 24.16954 51.45228 17070 ft 430 kts 179°
2026-05-07 09:16 24.13998 51.45252 17393 ft 431 kts 178°
2026-05-07 09:16 24.10951 51.45271 17723 ft 433 kts 178°
2026-05-07 09:16 24.07929 51.45284 18017 ft 436 kts 178°
2026-05-07 09:17 24.04937 51.45298 18343 ft 436 kts 178°
2026-05-07 09:17 24.01896 51.45314 18614 ft 439 kts 179°
2026-05-07 09:17 23.98838 51.45332 18879 ft 441 kts 179°
2026-05-07 09:17 23.95765 51.45353 19144 ft 442 kts 179°
2026-05-07 09:18 23.92684 51.45375 19406 ft 444 kts 179°
2026-05-07 09:18 23.89584 51.45397 19665 ft 447 kts 179°
2026-05-07 09:18 23.86461 51.45420 19872 ft 450 kts 179°
2026-05-07 09:18 23.83329 51.45443 20125 ft 452 kts 179°
2026-05-07 09:19 23.80176 51.45463 20369 ft 454 kts 180°
2026-05-07 09:19 23.77015 51.45482 20630 ft 455 kts 180°
2026-05-07 09:19 23.73844 51.45503 20876 ft 457 kts 180°
2026-05-07 09:19 23.70656 51.45526 21111 ft 459 kts 180°
2026-05-07 09:20 23.67512 51.45550 21353 ft 461 kts 180°
2026-05-07 09:20 23.64241 51.45572 21589 ft 463 kts 180°
2026-05-07 09:20 23.61098 51.45592 21798 ft 465 kts 180°
2026-05-07 09:20 23.57853 51.45612 22029 ft 467 kts 181°
2026-05-07 09:21 23.54601 51.45630 22250 ft 469 kts 181°
2026-05-07 09:21 23.51331 51.45649 22468 ft 470 kts 181°
2026-05-07 09:21 23.48052 51.45670 22691 ft 472 kts 181°
2026-05-07 09:21 23.44764 51.45691 22904 ft 474 kts 181°
2026-05-07 09:22 23.41459 51.45713 23108 ft 475 kts 181°
2026-05-07 09:22 23.38148 51.45734 23313 ft 477 kts 180°
2026-05-07 09:22 23.34823 51.45755 23496 ft 478 kts 181°
2026-05-07 09:22 23.31495 51.45775 23678 ft 479 kts 181°
2026-05-07 09:23 23.28161 51.45797 23858 ft 480 kts 181°
2026-05-07 09:23 23.24817 51.45819 24058 ft 481 kts 181°
2026-05-07 09:23 23.21469 51.45843 24253 ft 482 kts 181°
2026-05-07 09:23 23.18115 51.45877 24448 ft 482 kts 181°
2026-05-07 09:24 23.14761 51.45922 24718 ft 481 kts 181°
2026-05-07 09:24 23.11423 51.45971 25001 ft 480 kts 181°
2026-05-07 09:24 23.08092 51.46026 25273 ft 478 kts 181°
2026-05-07 09:24 23.04765 51.46082 25546 ft 477 kts 181°
2026-05-07 09:25 23.01447 51.46133 25820 ft 476 kts 181°
2026-05-07 09:25 22.98140 51.46181 26088 ft 475 kts 181°
2026-05-07 09:25 22.94838 51.46225 26365 ft 474 kts 181°
2026-05-07 09:25 22.91542 51.46267 26637 ft 473 kts 181°
2026-05-07 09:26 22.88299 51.46417 26901 ft 474 kts 175°
2026-05-07 09:26 22.85060 51.47109 27154 ft 476 kts 166°
2026-05-07 09:26 22.81961 51.48388 27395 ft 479 kts 156°
2026-05-07 09:26 22.79082 51.50226 27643 ft 482 kts 148°
2026-05-07 09:27 22.76322 51.52284 27878 ft 482 kts 148°
2026-05-07 09:27 22.73559 51.54331 28123 ft 481 kts 148°
2026-05-07 09:27 22.68028 51.58400 28617 ft 480 kts 149°
2026-05-07 09:28 22.65266 51.60432 28838 ft 480 kts 149°
2026-05-07 09:28 22.62502 51.62467 29075 ft 480 kts 149°
2026-05-07 09:28 22.59747 51.64502 29312 ft 479 kts 149°
2026-05-07 09:28 22.56993 51.66536 29543 ft 479 kts 149°
2026-05-07 09:29 22.54238 51.68564 29769 ft 479 kts 149°
2026-05-07 09:29 22.51485 51.70591 29979 ft 479 kts 149°
2026-05-07 09:29 22.48736 51.72613 30166 ft 478 kts 149°
2026-05-07 09:29 22.45985 51.74636 30357 ft 478 kts 149°
2026-05-07 09:30 22.43235 51.76655 30547 ft 478 kts 149°
2026-05-07 09:30 22.40487 51.78673 30729 ft 478 kts 149°
2026-05-07 09:30 22.38666 51.80011 30792 ft 478 kts 149°
2026-05-07 09:31 22.33158 51.84057 30819 ft 479 kts 149°
2026-05-07 09:31 22.27637 51.88098 30819 ft 479 kts 149°
2026-05-07 09:32 22.22110 51.92134 30815 ft 479 kts 149°
2026-05-07 09:32 22.16592 51.96172 30816 ft 479 kts 149°
2026-05-07 09:33 22.11043 52.00242 30816 ft 479 kts 149°
2026-05-07 09:33 22.05522 52.04276 30810 ft 479 kts 149°
2026-05-07 09:34 22.00004 52.08298 30802 ft 479 kts 149°
2026-05-07 09:34 21.94524 52.12292 30805 ft 479 kts 149°
2026-05-07 09:35 21.89011 52.16313 30802 ft 479 kts 149°
2026-05-07 09:35 21.83493 52.20328 30801 ft 479 kts 149°
2026-05-07 09:36 21.77972 52.24333 30797 ft 478 kts 149°
2026-05-07 09:36 21.72460 52.28338 30799 ft 478 kts 149°
2026-05-07 09:37 21.66943 52.32337 30802 ft 478 kts 149°
2026-05-07 09:37 21.61427 52.36334 30801 ft 478 kts 149°
2026-05-07 09:38 21.55912 52.40336 30795 ft 478 kts 149°
2026-05-07 09:38 21.50393 52.44333 30798 ft 478 kts 149°
2026-05-07 09:39 21.44870 52.48325 30802 ft 478 kts 149°
2026-05-07 09:39 21.39345 52.52312 30804 ft 479 kts 149°
2026-05-07 09:40 21.33820 52.56300 30802 ft 478 kts 149°
2026-05-07 09:40 21.28293 52.60276 30804 ft 478 kts 149°
2026-05-07 09:41 21.22770 52.64251 30805 ft 478 kts 149°
2026-05-07 09:41 21.17244 52.68227 30807 ft 478 kts 149°
2026-05-07 09:42 21.11721 52.72201 30808 ft 478 kts 148°
2026-05-07 09:42 21.06203 52.76174 30811 ft 478 kts 148°
2026-05-07 09:43 21.00681 52.80133 30815 ft 478 kts 148°
2026-05-07 09:43 20.95153 52.84085 30815 ft 478 kts 149°
2026-05-07 09:44 20.89626 52.88038 30811 ft 478 kts 148°
2026-05-07 09:44 20.84108 52.91995 30813 ft 478 kts 148°
2026-05-07 09:45 20.78585 52.95946 30812 ft 478 kts 148°
2026-05-07 09:45 20.73063 52.99893 30813 ft 478 kts 148°
2026-05-07 09:46 20.67568 53.03826 30816 ft 478 kts 148°
2026-05-07 09:46 20.62038 53.07767 30820 ft 478 kts 148°
2026-05-07 09:47 20.56502 53.11699 30824 ft 478 kts 148°
2026-05-07 09:47 20.50970 53.15634 30824 ft 478 kts 148°
2026-05-07 09:48 20.45432 53.19573 30818 ft 478 kts 148°
2026-05-07 09:48 20.39901 53.23506 30821 ft 478 kts 148°
2026-05-07 09:49 20.34333 53.27461 30829 ft 478 kts 148°
2026-05-07 09:49 20.28822 53.31359 30828 ft 478 kts 148°
2026-05-07 09:50 20.23314 53.35264 30819 ft 476 kts 148°
2026-05-07 09:50 20.17796 53.39171 30819 ft 477 kts 148°
2026-05-07 09:51 20.12272 53.43078 30817 ft 477 kts 148°
2026-05-07 09:51 20.06746 53.46979 30816 ft 477 kts 148°
2026-05-07 09:52 20.01226 53.50883 30808 ft 477 kts 148°
2026-05-07 09:52 19.95699 53.54788 30810 ft 477 kts 148°
2026-05-07 09:53 19.90171 53.58694 30812 ft 477 kts 148°
2026-05-07 09:53 19.84635 53.62591 30816 ft 477 kts 148°
2026-05-07 09:54 19.79097 53.66486 30820 ft 477 kts 148°
2026-05-07 09:54 19.73560 53.70374 30818 ft 477 kts 148°
2026-05-07 09:55 19.68027 53.74264 30818 ft 477 kts 148°
2026-05-07 09:55 19.62864 53.78663 30813 ft 479 kts 133°
2026-05-07 09:56 19.59296 53.84611 30809 ft 481 kts 112°
2026-05-07 09:56 19.57289 53.91391 30810 ft 483 kts 107°
2026-05-07 09:57 19.55381 53.98212 30805 ft 483 kts 107°
2026-05-07 09:57 19.53457 54.05033 30813 ft 483 kts 107°
2026-05-07 09:58 19.51530 54.11861 30813 ft 483 kts 107°
2026-05-07 09:58 19.49601 54.18687 30816 ft 483 kts 107°
2026-05-07 09:59 19.47690 54.25468 30822 ft 484 kts 107°
2026-05-07 09:59 19.45765 54.32293 30820 ft 483 kts 107°
2026-05-07 10:00 19.43829 54.39113 30817 ft 484 kts 108°
2026-05-07 10:00 19.41887 54.45937 30822 ft 483 kts 107°
2026-05-07 10:01 19.39942 54.52750 30826 ft 483 kts 107°
2026-05-07 10:01 19.38004 54.59566 30811 ft 484 kts 107°
2026-05-07 10:02 19.36061 54.66383 30811 ft 484 kts 108°
2026-05-07 10:02 19.34116 54.73201 30816 ft 484 kts 108°
2026-05-07 10:03 19.32157 54.80024 30815 ft 484 kts 107°
2026-05-07 10:03 19.30201 54.86840 30820 ft 484 kts 108°
2026-05-07 10:04 19.28247 54.93658 30819 ft 484 kts 108°
2026-05-07 10:04 19.26291 55.00466 30821 ft 483 kts 108°
2026-05-07 10:05 19.24336 55.07266 30833 ft 483 kts 107°
2026-05-07 10:05 19.22380 55.14054 30838 ft 482 kts 108°
2026-05-07 10:06 19.20420 55.20833 30836 ft 481 kts 107°
2026-05-07 10:06 19.18462 55.27599 30839 ft 481 kts 107°
2026-05-07 10:07 19.16497 55.34372 30827 ft 481 kts 108°
2026-05-07 10:07 19.14535 55.41138 30831 ft 481 kts 107°
2026-05-07 10:08 19.12569 55.47912 30885 ft 483 kts 107°
2026-05-07 10:08 19.11578 55.51309 31052 ft 483 kts 107°
2026-05-07 10:08 19.10588 55.54698 31220 ft 483 kts 108°
2026-05-07 10:08 19.09528 55.58074 31375 ft 483 kts 114°
2026-05-07 10:09 19.07847 55.61119 31560 ft 479 kts 130°
2026-05-07 10:09 19.05475 55.63567 31748 ft 476 kts 146°
2026-05-07 10:09 19.02589 55.65235 31904 ft 473 kts 162°
2026-05-07 10:09 18.99414 55.66023 32048 ft 469 kts 177°
2026-05-07 10:10 18.96161 55.65921 32180 ft 467 kts 192°
2026-05-07 10:10 18.93065 55.64943 32336 ft 465 kts 206°
2026-05-07 10:10 18.90234 55.63311 32509 ft 464 kts 211°
2026-05-07 10:10 18.87437 55.61619 32705 ft 463 kts 211°
2026-05-07 10:11 18.84692 55.59961 32859 ft 463 kts 210°
2026-05-07 10:11 18.81894 55.58276 33037 ft 463 kts 210°
2026-05-07 10:11 18.79099 55.56593 33209 ft 462 kts 210°
2026-05-07 10:11 18.76301 55.54910 33406 ft 462 kts 210°
2026-05-07 10:12 18.73512 55.53233 33562 ft 462 kts 210°
2026-05-07 10:12 18.70716 55.51555 33761 ft 461 kts 210°
2026-05-07 10:12 18.67931 55.49885 33836 ft 459 kts 211°
2026-05-07 10:13 18.62374 55.46558 33844 ft 460 kts 210°
2026-05-07 10:13 18.56821 55.43231 33845 ft 458 kts 211°
2026-05-07 10:14 18.51269 55.39907 33850 ft 459 kts 210°
2026-05-07 10:14 18.45713 55.36587 33843 ft 459 kts 211°
2026-05-07 10:15 18.40159 55.33268 33844 ft 459 kts 210°
2026-05-07 10:15 18.35503 55.30485 33852 ft 459 kts 210°
2026-05-07 10:16 18.29943 55.27159 33859 ft 460 kts 211°
2026-05-07 10:16 18.24386 55.23842 33853 ft 459 kts 210°
2026-05-07 10:17 18.18825 55.20527 33855 ft 459 kts 210°
2026-05-07 10:17 18.13208 55.17315 33854 ft 460 kts 204°
2026-05-07 10:18 18.07427 55.14723 33841 ft 460 kts 204°
2026-05-07 10:18 18.01533 55.12079 33846 ft 460 kts 204°
2026-05-07 10:19 17.95643 55.09435 33850 ft 460 kts 204°
2026-05-07 10:19 17.89750 55.06789 33850 ft 461 kts 204°
2026-05-07 10:20 17.83851 55.04139 33838 ft 461 kts 204°
2026-05-07 10:20 17.77946 55.01496 33846 ft 462 kts 204°
2026-05-07 10:21 17.72035 54.98853 33864 ft 462 kts 204°
2026-05-07 10:21 17.66126 54.96210 33870 ft 462 kts 204°
2026-05-07 10:22 17.60218 54.93571 33865 ft 461 kts 204°
2026-05-07 10:22 17.54308 54.90935 33878 ft 462 kts 205°
2026-05-07 10:23 17.48398 54.88295 33870 ft 462 kts 205°
2026-05-07 10:23 17.42487 54.85650 33876 ft 463 kts 204°
2026-05-07 10:24 17.36574 54.83011 33880 ft 463 kts 204°
2026-05-07 10:24 17.30648 54.80376 33887 ft 463 kts 205°
2026-05-07 10:25 17.24914 54.77365 33888 ft 461 kts 213°
2026-05-07 10:25 17.19523 54.73739 33886 ft 461 kts 213°
2026-05-07 10:26 17.14129 54.70126 33898 ft 460 kts 213°
2026-05-07 10:26 17.08733 54.66522 33897 ft 460 kts 214°
2026-05-07 10:27 17.03341 54.62914 33899 ft 460 kts 213°
2026-05-07 10:27 16.97949 54.59318 33899 ft 460 kts 214°
2026-05-07 10:28 16.92560 54.55725 33894 ft 460 kts 213°
2026-05-07 10:28 16.87165 54.52122 33870 ft 461 kts 213°
2026-05-07 10:29 16.81759 54.48512 33868 ft 462 kts 213°
2026-05-07 10:29 16.76348 54.44905 33868 ft 462 kts 213°
2026-05-07 10:30 16.68262 54.39520 33866 ft 462 kts 213°
2026-05-07 10:30 16.62841 54.35917 33873 ft 462 kts 213°
2026-05-07 10:31 16.57388 54.32288 33872 ft 462 kts 213°
2026-05-07 10:31 16.52006 54.28716 33873 ft 462 kts 213°
2026-05-07 10:32 16.46591 54.25116 33873 ft 462 kts 213°
2026-05-07 10:32 16.41172 54.21516 33874 ft 462 kts 213°
2026-05-07 10:33 16.35756 54.17926 33879 ft 461 kts 213°
2026-05-07 10:33 16.30337 54.14341 33878 ft 461 kts 213°
2026-05-07 10:34 16.24918 54.10754 33877 ft 462 kts 213°
2026-05-07 10:34 16.19499 54.07165 33873 ft 462 kts 213°
2026-05-07 10:35 16.14078 54.03581 33873 ft 462 kts 213°
2026-05-07 10:35 16.08654 54.00001 33873 ft 462 kts 213°
2026-05-07 10:36 16.03234 53.96413 33875 ft 462 kts 213°
2026-05-07 10:36 15.97814 53.92829 33879 ft 462 kts 213°
2026-05-07 10:37 15.92393 53.89254 33877 ft 462 kts 213°
2026-05-07 10:37 15.86967 53.85673 33877 ft 462 kts 213°
2026-05-07 10:38 15.81556 53.82072 33878 ft 462 kts 213°
2026-05-07 10:38 15.76153 53.78454 33880 ft 462 kts 213°
2026-05-07 10:39 15.70749 53.74832 33882 ft 462 kts 213°
2026-05-07 10:39 15.65344 53.71218 33887 ft 462 kts 213°
2026-05-07 10:40 15.59941 53.67616 33887 ft 461 kts 213°
2026-05-07 10:40 15.54534 53.64019 33883 ft 462 kts 213°
2026-05-07 10:41 15.49128 53.60421 33881 ft 462 kts 213°
2026-05-07 10:41 15.43718 53.56821 33881 ft 462 kts 213°
2026-05-07 10:42 15.38284 53.53268 33880 ft 462 kts 212°
2026-05-07 10:42 15.32810 53.49781 33880 ft 462 kts 212°
2026-05-07 10:43 15.27328 53.46302 33879 ft 462 kts 212°
2026-05-07 10:43 15.21860 53.42804 33879 ft 462 kts 212°
2026-05-07 10:44 15.16401 53.39299 33877 ft 462 kts 212°
2026-05-07 10:44 15.10933 53.35796 33877 ft 462 kts 212°
2026-05-07 10:45 15.05463 53.32301 33876 ft 462 kts 212°
2026-05-07 10:45 14.99999 53.28810 33875 ft 462 kts 212°
2026-05-07 10:46 14.94531 53.25323 33883 ft 462 kts 212°
2026-05-07 10:46 14.89062 53.21834 33880 ft 462 kts 212°
2026-05-07 10:47 14.83600 53.18345 33879 ft 461 kts 212°
2026-05-07 10:47 14.78137 53.14865 33876 ft 461 kts 212°
2026-05-07 10:48 14.72673 53.11381 33875 ft 462 kts 212°
2026-05-07 10:48 14.67368 53.07665 33874 ft 461 kts 222°
2026-05-07 10:49 14.63330 53.02572 33868 ft 460 kts 239°
2026-05-07 10:49 14.60103 52.96868 33867 ft 460 kts 239°
2026-05-07 10:50 14.56873 52.91168 33863 ft 460 kts 239°
2026-05-07 10:50 14.53761 52.85687 33858 ft 460 kts 239°
2026-05-07 10:51 14.50523 52.79991 33861 ft 460 kts 239°
2026-05-07 10:51 14.47319 52.74366 33861 ft 460 kts 238°
2026-05-07 10:52 14.44104 52.68719 33863 ft 461 kts 239°
2026-05-07 10:52 14.40974 52.63225 33871 ft 460 kts 239°
2026-05-07 10:53 14.38372 52.58663 33871 ft 460 kts 238°
2026-05-07 10:53 14.34309 52.52846 33840 ft 460 kts 237°
2026-05-07 10:54 14.32763 52.49960 33729 ft 459 kts 243°
2026-05-07 10:54 14.31356 52.47008 33852 ft 460 kts 243°
2026-05-07 10:54 14.28430 52.41117 33862 ft 462 kts 240°
2026-05-07 10:55 14.25211 52.35391 33869 ft 461 kts 238°
2026-05-07 10:55 14.21879 52.29741 33867 ft 461 kts 238°
2026-05-07 10:56 14.18675 52.24235 33861 ft 461 kts 238°
2026-05-07 10:56 14.15423 52.18549 33866 ft 461 kts 238°
2026-05-07 10:57 14.12705 52.13778 33862 ft 461 kts 238°
2026-05-07 10:57 14.09453 52.08094 33862 ft 461 kts 238°
2026-05-07 10:58 14.06211 52.02454 33861 ft 460 kts 238°
2026-05-07 10:58 14.02973 51.96809 33857 ft 460 kts 238°
2026-05-07 10:59 13.99696 51.91101 33856 ft 460 kts 238°
2026-05-07 10:59 13.96519 51.85589 33853 ft 460 kts 238°
2026-05-07 11:00 13.93404 51.80192 33850 ft 460 kts 238°
2026-05-07 11:00 13.90129 51.74489 33853 ft 460 kts 238°
2026-05-07 11:01 13.86894 51.68880 33848 ft 460 kts 238°
2026-05-07 11:01 13.83630 51.63226 33846 ft 460 kts 238°
2026-05-07 11:02 13.80364 51.57563 33846 ft 460 kts 238°
2026-05-07 11:02 13.77100 51.51901 33846 ft 460 kts 237°
2026-05-07 11:03 13.73886 51.46331 33844 ft 460 kts 238°
2026-05-07 11:03 13.70673 51.40668 33842 ft 460 kts 239°
2026-05-07 11:04 13.67513 51.34997 33833 ft 460 kts 239°
2026-05-07 11:04 13.64322 51.29274 33832 ft 460 kts 239°
2026-05-07 11:05 13.61209 51.23758 33833 ft 460 kts 238°
2026-05-07 11:05 13.58011 51.18078 33831 ft 460 kts 238°
2026-05-07 11:06 13.54813 51.12385 33833 ft 460 kts 238°
2026-05-07 11:06 13.51613 51.06690 33832 ft 460 kts 238°
2026-05-07 11:07 13.48415 51.01025 33826 ft 460 kts 239°
2026-05-07 11:07 13.45207 50.95351 33824 ft 460 kts 239°
2026-05-07 11:08 13.42029 50.89707 33819 ft 460 kts 238°
2026-05-07 11:08 13.38819 50.84025 33817 ft 460 kts 238°
2026-05-07 11:09 13.35660 50.78434 33814 ft 461 kts 238°
2026-05-07 11:09 13.32554 50.72949 33813 ft 462 kts 238°
2026-05-07 11:10 13.29505 50.67574 33814 ft 462 kts 238°
2026-05-07 11:10 13.26283 50.61901 33816 ft 463 kts 238°
2026-05-07 11:11 13.23052 50.56186 33815 ft 463 kts 238°
2026-05-07 11:11 13.19816 50.50464 33819 ft 464 kts 238°
2026-05-07 11:12 13.16565 50.44749 33823 ft 464 kts 238°
2026-05-07 11:12 13.13325 50.39075 33829 ft 464 kts 238°
2026-05-07 11:13 13.10062 50.33360 33831 ft 464 kts 238°
2026-05-07 11:13 13.06799 50.27641 33833 ft 464 kts 238°
2026-05-07 11:14 13.03528 50.21926 33834 ft 465 kts 238°
2026-05-07 11:14 13.00259 50.16216 33834 ft 465 kts 238°
2026-05-07 11:15 12.96986 50.10497 33835 ft 465 kts 238°
2026-05-07 11:15 12.93735 50.04823 33835 ft 464 kts 238°
2026-05-07 11:16 12.90478 49.99134 33836 ft 464 kts 238°
2026-05-07 11:16 12.87226 49.93449 33830 ft 464 kts 238°
2026-05-07 11:17 12.83980 49.87803 33827 ft 464 kts 238°
2026-05-07 11:17 12.80704 49.82108 33825 ft 464 kts 238°
2026-05-07 11:18 12.77429 49.76414 33829 ft 464 kts 238°
2026-05-07 11:18 12.74156 49.70715 33823 ft 464 kts 238°
2026-05-07 11:19 12.70888 49.65023 33813 ft 465 kts 238°
2026-05-07 11:19 12.67603 49.59312 33814 ft 465 kts 238°
2026-05-07 11:20 12.64321 49.53608 33814 ft 465 kts 238°
2026-05-07 11:20 12.61044 49.47933 33815 ft 465 kts 238°
2026-05-07 11:21 12.57747 49.42235 33818 ft 465 kts 238°
2026-05-07 11:21 12.54482 49.36575 33819 ft 465 kts 238°
2026-05-07 11:22 12.51185 49.30864 33814 ft 466 kts 238°
2026-05-07 11:22 12.47888 49.25144 33817 ft 466 kts 238°
2026-05-07 11:23 12.44592 49.19437 33823 ft 466 kts 238°
2026-05-07 11:23 12.41319 49.13795 33823 ft 466 kts 238°
2026-05-07 11:24 12.38133 49.08301 33826 ft 466 kts 238°
2026-05-07 11:24 12.35098 49.03049 33825 ft 465 kts 238°
2026-05-07 11:25 12.31793 48.97350 33823 ft 465 kts 238°
2026-05-07 11:25 12.28561 48.91770 33825 ft 465 kts 238°
2026-05-07 11:26 12.25266 48.86072 33826 ft 465 kts 238°
2026-05-07 11:26 12.21969 48.80379 33828 ft 465 kts 238°
2026-05-07 11:27 12.18667 48.74695 33826 ft 465 kts 238°
2026-05-07 11:27 12.15361 48.69012 33823 ft 465 kts 238°
2026-05-07 11:28 12.12055 48.63337 33825 ft 464 kts 238°
2026-05-07 11:28 12.08754 48.57669 33824 ft 464 kts 238°
2026-05-07 11:29 12.05458 48.52008 33821 ft 463 kts 238°
2026-05-07 11:29 12.02184 48.46344 33819 ft 463 kts 238°
2026-05-07 11:30 11.98981 48.40646 33814 ft 463 kts 239°
2026-05-07 11:30 11.95783 48.34941 33815 ft 463 kts 239°
2026-05-07 11:31 11.92556 48.29238 33815 ft 463 kts 239°
2026-05-07 11:31 11.89322 48.23550 33815 ft 463 kts 239°
2026-05-07 11:32 11.84470 48.15019 33817 ft 463 kts 239°
2026-05-07 11:33 11.81261 48.09362 33820 ft 464 kts 239°
2026-05-07 11:33 11.78019 48.03665 33823 ft 464 kts 239°
2026-05-07 11:34 11.74780 47.97969 33826 ft 464 kts 239°
2026-05-07 11:34 11.71533 47.92267 33826 ft 465 kts 239°
2026-05-07 11:35 11.68279 47.86559 33823 ft 465 kts 239°
2026-05-07 11:35 11.65024 47.80854 33825 ft 465 kts 238°
2026-05-07 11:36 11.61773 47.75144 33826 ft 465 kts 239°
2026-05-07 11:36 11.58522 47.69439 33823 ft 465 kts 239°
2026-05-07 11:37 11.55265 47.63731 33828 ft 465 kts 239°
2026-05-07 11:37 11.52005 47.58032 33827 ft 465 kts 239°
2026-05-07 11:38 11.48750 47.52338 33831 ft 464 kts 239°
2026-05-07 11:38 11.45489 47.46638 33836 ft 464 kts 239°
2026-05-07 11:39 11.42237 47.40957 33830 ft 464 kts 239°
2026-05-07 11:39 11.38994 47.35289 33835 ft 463 kts 239°
2026-05-07 11:40 11.35748 47.29629 33836 ft 462 kts 239°
2026-05-07 11:40 11.32512 47.23983 33829 ft 461 kts 239°
2026-05-07 11:41 11.29830 47.19292 33829 ft 461 kts 239°
2026-05-07 11:41 11.26611 47.13655 33841 ft 460 kts 239°
2026-05-07 11:42 11.23388 47.08039 33831 ft 459 kts 239°
2026-05-07 11:42 11.20167 47.02433 33829 ft 458 kts 239°
2026-05-07 11:43 11.16958 46.96844 33827 ft 458 kts 239°
2026-05-07 11:43 11.13731 46.91243 33821 ft 458 kts 239°
2026-05-07 11:44 11.10517 46.85649 33826 ft 457 kts 239°
2026-05-07 11:44 11.07301 46.80058 33819 ft 457 kts 239°
2026-05-07 11:45 11.04090 46.74471 33818 ft 458 kts 239°
2026-05-07 11:45 11.00872 46.68882 33816 ft 457 kts 239°
2026-05-07 11:46 10.97651 46.63292 33819 ft 457 kts 239°
2026-05-07 11:46 10.94428 46.57710 33806 ft 458 kts 239°
2026-05-07 11:47 10.91195 46.52125 33807 ft 458 kts 239°
2026-05-07 11:47 10.87966 46.46531 33810 ft 458 kts 240°
2026-05-07 11:48 10.84742 46.40933 33811 ft 459 kts 240°
2026-05-07 11:48 10.81515 46.35337 33818 ft 459 kts 239°
2026-05-07 11:49 10.78294 46.29737 33823 ft 459 kts 240°
2026-05-07 11:49 10.75105 46.24104 33824 ft 459 kts 240°
2026-05-07 11:50 10.71938 46.18467 33830 ft 459 kts 240°
2026-05-07 11:50 10.68757 46.12845 33834 ft 458 kts 240°
2026-05-07 11:51 10.65590 46.07268 33840 ft 459 kts 240°
2026-05-07 11:51 10.62401 46.01655 33839 ft 458 kts 240°
2026-05-07 11:52 10.59212 45.96039 33835 ft 458 kts 240°
2026-05-07 11:52 10.56033 45.90425 33827 ft 459 kts 240°
2026-05-07 11:53 10.52846 45.84804 33822 ft 459 kts 240°
2026-05-07 11:53 10.49653 45.79189 33824 ft 459 kts 240°
2026-05-07 11:54 10.46456 45.73579 33819 ft 458 kts 240°
2026-05-07 11:54 10.43266 45.67984 33817 ft 457 kts 240°
2026-05-07 11:55 10.40081 45.62395 33820 ft 457 kts 240°
2026-05-07 11:55 10.36905 45.56807 33809 ft 457 kts 240°
2026-05-07 11:56 10.33728 45.51228 33819 ft 456 kts 240°
2026-05-07 11:56 10.30545 45.45653 33822 ft 457 kts 240°
2026-05-07 11:57 10.27355 45.40067 33823 ft 457 kts 240°
2026-05-07 11:57 10.24159 45.34473 33825 ft 457 kts 240°
2026-05-07 11:58 10.20973 45.28888 33824 ft 457 kts 240°
2026-05-07 11:58 10.17797 45.23317 33842 ft 458 kts 240°
2026-05-07 11:59 10.14594 45.17717 33843 ft 458 kts 240°
2026-05-07 11:59 10.11390 45.12121 33848 ft 459 kts 240°
2026-05-07 12:00 10.08188 45.06519 33851 ft 459 kts 240°
2026-05-07 12:00 10.04977 45.00918 33873 ft 459 kts 240°
2026-05-07 12:01 10.01770 44.95313 33875 ft 459 kts 240°
2026-05-07 12:01 9.98563 44.89704 33879 ft 460 kts 240°
2026-05-07 12:02 9.95353 44.84097 33884 ft 459 kts 240°
2026-05-07 12:02 9.92156 44.78533 33884 ft 459 kts 240°
2026-05-07 12:03 9.88942 44.72941 33869 ft 460 kts 240°
2026-05-07 12:03 9.85713 44.67320 33864 ft 461 kts 240°
2026-05-07 12:04 9.82490 44.61706 33863 ft 461 kts 240°
2026-05-07 12:04 9.79265 44.56093 33863 ft 461 kts 240°
2026-05-07 12:05 9.76039 44.50482 33858 ft 461 kts 240°
2026-05-07 12:05 9.72811 44.44872 33862 ft 460 kts 240°
2026-05-07 12:06 9.69588 44.39261 33851 ft 461 kts 240°
2026-05-07 12:06 9.66358 44.33632 33848 ft 462 kts 240°
2026-05-07 12:07 9.63113 44.27996 33849 ft 463 kts 240°
2026-05-07 12:07 9.59849 44.22359 33851 ft 464 kts 239°
2026-05-07 12:08 9.57171 44.16461 33849 ft 463 kts 260°
2026-05-07 12:08 9.56996 44.13219 33849 ft 462 kts 276°
2026-05-07 12:08 9.57709 44.10056 33853 ft 462 kts 291°
2026-05-07 12:08 9.59254 44.07214 33849 ft 462 kts 308°
2026-05-07 12:09 9.61533 44.04937 33856 ft 462 kts 324°
2026-05-07 12:09 9.67264 44.01970 33843 ft 464 kts 334°
2026-05-07 12:10 9.73114 43.99210 33849 ft 466 kts 334°
2026-05-07 12:10 9.79013 43.96400 33855 ft 467 kts 334°
2026-05-07 12:11 9.84888 43.93587 33851 ft 467 kts 334°
2026-05-07 12:11 9.90765 43.90769 33865 ft 467 kts 334°
2026-05-07 12:12 9.96635 43.87964 33855 ft 466 kts 334°
2026-05-07 12:12 10.02458 43.85184 33855 ft 466 kts 334°
2026-05-07 12:13 10.08363 43.82360 33848 ft 466 kts 334°
2026-05-07 12:13 10.14227 43.79554 33845 ft 466 kts 334°
2026-05-07 12:14 10.20078 43.76749 33828 ft 465 kts 334°
2026-05-07 12:14 10.25917 43.73946 33832 ft 465 kts 334°
2026-05-07 12:15 10.31774 43.71144 33812 ft 465 kts 334°
2026-05-07 12:15 10.37634 43.68334 33816 ft 466 kts 334°
2026-05-07 12:16 10.43496 43.65530 33807 ft 466 kts 334°
2026-05-07 12:16 10.49364 43.62719 33810 ft 466 kts 334°
2026-05-07 12:17 10.55146 43.59753 33791 ft 466 kts 326°
2026-05-07 12:17 10.60308 43.55778 33791 ft 466 kts 321°
2026-05-07 12:18 10.65406 43.51716 33789 ft 466 kts 322°
2026-05-07 12:18 10.70519 43.47656 33789 ft 466 kts 321°
2026-05-07 12:19 10.75629 43.43595 33790 ft 466 kts 321°
2026-05-07 12:19 10.80738 43.39522 33790 ft 466 kts 321°
2026-05-07 12:20 10.85826 43.35464 32706 ft 461 kts 321°
2026-05-07 12:20 10.88373 43.33425 30797 ft 472 kts 321°
2026-05-07 12:20 10.90972 43.31334 28820 ft 480 kts 321°
2026-05-07 12:20 10.93601 43.29213 26692 ft 488 kts 322°
2026-05-07 12:21 10.96291 43.27038 24656 ft 495 kts 322°
2026-05-07 12:21 10.99000 43.24850 22647 ft 501 kts 322°
2026-05-07 12:21 11.01719 43.22658 21039 ft 492 kts 322°
2026-05-07 12:21 11.04356 43.20529 19612 ft 478 kts 323°
2026-05-07 12:22 11.06897 43.18479 18235 ft 467 kts 323°
2026-05-07 12:22 11.09441 43.16427 16727 ft 455 kts 323°
2026-05-07 12:22 11.11860 43.14478 15394 ft 443 kts 323°
2026-05-07 12:22 11.14235 43.12562 14817 ft 414 kts 324°
2026-05-07 12:23 11.16382 43.10829 14533 ft 384 kts 324°
2026-05-07 12:23 11.18390 43.09206 14377 ft 354 kts 324°
2026-05-07 12:23 11.20256 43.07698 14017 ft 335 kts 324°
2026-05-07 12:23 11.22061 43.06242 13361 ft 328 kts 325°
2026-05-07 12:24 11.23837 43.04813 12602 ft 324 kts 325°
2026-05-07 12:24 11.25593 43.03400 11850 ft 320 kts 325°
2026-05-07 12:24 11.27332 43.01999 11105 ft 317 kts 325°
2026-05-07 12:24 11.29051 43.00615 10393 ft 313 kts 325°
2026-05-07 12:25 11.30750 42.99246 9697 ft 310 kts 325°
2026-05-07 12:25 11.32423 42.97896 9130 ft 304 kts 324°
2026-05-07 12:25 11.34089 42.96554 8665 ft 307 kts 325°
2026-05-07 12:25 11.35221 42.95642 8433 ft 305 kts 324°
2026-05-07 12:26 11.37417 42.93866 7782 ft 305 kts 323°
2026-05-07 12:26 11.38536 42.92958 7544 ft 303 kts 324°
2026-05-07 12:26 11.40191 42.91619 7028 ft 306 kts 324°
2026-05-07 12:26 11.41963 42.90505 6673 ft 295 kts 338°
2026-05-07 12:27 11.43917 42.89946 6183 ft 291 kts 354°
2026-05-07 12:27 11.45921 42.89899 5687 ft 286 kts
2026-05-07 12:27 11.47891 42.89935 5199 ft 280 kts
2026-05-07 12:27 11.49829 42.89964 4776 ft 275 kts
2026-05-07 12:28 11.51670 42.89987 4644 ft 254 kts
2026-05-07 12:28 11.53351 42.90287 4351 ft 240 kts 31°
2026-05-07 12:28 11.54552 42.91346 4267 ft 222 kts 58°
2026-05-07 12:28 11.55038 42.92779 4094 ft 215 kts 85°
2026-05-07 12:29 11.55034 42.94292 3831 ft 213 kts 89°
2026-05-07 12:29 11.55011 42.95798 3549 ft 213 kts 89°
2026-05-07 12:29 11.54988 42.97308 3250 ft 212 kts 90°
2026-05-07 12:29 11.54964 42.98803 2965 ft 209 kts 90°
2026-05-07 12:30 11.54942 43.00239 2715 ft 194 kts 90°
2026-05-07 12:30 11.54922 43.01570 2467 ft 181 kts 89°
2026-05-07 12:30 11.54905 43.02778 2276 ft 160 kts 90°
2026-05-07 12:30 11.54897 43.03889 2044 ft 152 kts 88°
2026-05-07 12:31 11.54876 43.04967 1791 ft 152 kts 90°
2026-05-07 12:31 11.54870 43.06046 1638 ft 152 kts 87°
2026-05-07 12:31 11.54889 43.07136 1368 ft 157 kts 88°
2026-05-07 12:31 11.54876 43.08235 1249 ft 151 kts 88°
2026-05-07 12:32 11.54834 43.09301 964 ft 148 kts 89°
2026-05-07 12:32 11.54806 43.10392 771 ft 158 kts 88°
2026-05-07 12:32 11.54793 43.11490 591 ft 154 kts 86°
2026-05-07 12:32 11.54775 43.12573 417 ft 149 kts 88°
2026-05-07 12:33 11.54748 43.14688 72 ft 144 kts 89°
2026-05-07 12:33 11.54744 43.15590 36 ft 99 kts 91°
2026-05-07 12:33 11.54733 43.16000 30 ft 33 kts 90°
2026-05-07 12:34 11.54733 43.16226 28 ft 30 kts 90°
2026-05-07 12:34 11.54745 43.16396 30 ft 14 kts 51°
2026-05-07 12:34 11.54821 43.16415 26 ft 11 kts
2026-05-07 12:34 11.54890 43.16415 27 ft 9 kts
2026-05-07 12:35 11.54951 43.16415 27 ft 8 kts 359°
2026-05-07 12:35 11.54987 43.16384 27 ft 8 kts 288°
2026-05-07 12:35 11.54991 43.16293 28 ft 14 kts 271°
2026-05-07 12:35 11.54992 43.16200 29 ft 12 kts 270°
2026-05-07 12:36 11.54993 43.16124 28 ft 10 kts 270°
2026-05-07 12:36 11.54994 43.16049 31 ft 11 kts 271°
2026-05-07 12:36 11.54995 43.15966 32 ft 12 kts 270°
2026-05-07 12:36 11.54996 43.15876 33 ft 13 kts 270°
2026-05-07 12:37 11.54997 43.15778 34 ft 14 kts 270°
2026-05-07 12:37 11.54999 43.15673 35 ft 15 kts 271°
2026-05-07 12:37 11.55000 43.15566 36 ft 14 kts 270°
2026-05-07 12:37 11.55001 43.15474 37 ft 12 kts 271°
2026-05-07 12:38 11.55003 43.15396 39 ft 10 kts 271°
2026-05-07 12:38 11.55005 43.15331 38 ft 8 kts 272°
2026-05-07 12:38 11.55006 43.15277 39 ft 9 kts 270°
2026-05-07 12:38 11.55005 43.15183 40 ft 15 kts 270°
2026-05-07 12:39 11.55006 43.15094 41 ft 10 kts 270°
2026-05-07 12:39 11.55006 43.15036 41 ft 7 kts 270°
2026-05-07 12:39 11.55006 43.14972 42 ft 11 kts 271°
2026-05-07 12:39 11.55024 43.14885 41 ft 13 kts 324°
2026-05-07 12:40 11.55079 43.14880 40 ft 5 kts 356°
2026-05-07 12:40 11.55106 43.14879 43 ft 4 kts 359°
2026-05-07 12:40 11.55138 43.14879 43 ft 3 kts 359°
2026-05-07 12:40 11.55143 43.14879 43 ft 0 kts 360°
2026-05-07 12:41 11.55144 43.14879 43 ft 0 kts 360°